EW6960 Weather Reports


Display with metric or nautical units.
time (UTC)temp
F
wind
direction
speed
MPH
gust
MPH
rain 1hr
in
rain 24hr
in
rain mn
in
humidity
%
barometer
mb
20260502164003 55 0 0.0 0.0 0.11 0.34 0.34 96 1012.3
20260502163003 56 0 0.0 0.0 0.08 0.29 0.29 96 1012.2
20260502162003 55 267 0.0 2.0 0.10 0.27 0.27 96 1012.2
20260502161003 55 253 0.0 2.0 0.12 0.26 0.26 95 1012.0
20260502152003 56 31 0.0 1.0 0.15 0.17 0.17 93 1012.8
20260502151002 57 0 0.0 0.0 0.14 0.14 0.14 93 1013.1
20260502123002 62 278 0.0 2.0 0.00 0.00 0.00 67 1014.5
20260502122023 63 287 0.0 3.0 0.00 0.00 0.00 68 1014.5
20260502121002 63 259 0.0 1.0 0.00 0.00 0.00 67 1014.9
20260502115002 63 268 0.0 3.0 0.00 0.00 0.00 67 1015.2
20260502114002 61 265 0.0 3.0 0.00 0.00 0.00 70 1015.3
20260502113002 62 260 1.0 2.0 0.00 0.00 0.00 67 1015.1
20260502112002 62 277 0.0 2.0 0.00 0.00 0.00 66 1015.1
20260502111002 63 264 0.0 2.0 0.00 0.00 0.00 66 1015.4
20260502110002 63 273 0.0 1.0 0.00 0.00 0.00 67 1015.8
20260502105002 62 272 0.0 3.0 0.00 0.00 0.00 71 1016.0
20260502104002 62 176 0.0 2.0 0.00 0.00 0.00 70 1016.0
20260502103002 62 303 0.0 2.0 0.00 0.00 0.00 70 1016.0
20260502102002 62 214 0.0 2.0 0.00 0.00 0.00 71 1016.5
20260502101002 61 151 0.0 3.0 0.00 0.00 0.00 71 1016.6
20260502091002 60 242 0.0 2.0 0.00 0.00 0.00 74 1016.8
20260502071002 53 251 0.0 1.0 0.00 0.00 0.00 88 1017.9
20260502070023 53 244 0.0 1.0 0.00 0.00 0.00 88 1017.8
20260502065002 52 258 0.0 1.0 0.00 0.00 0.00 92 1017.8
20260502064023 51 0 0.0 0.0 0.00 0.00 0.00 95 1017.8
20260502063002 50 0 0.0 0.0 0.00 0.00 0.00 96 1018.1
20260502062002 48 0 0.0 0.0 0.00 0.00 0.00 96 1018.3
20260502061002 48 0 0.0 0.0 0.00 0.00 0.00 96 1018.1
20260502060002 48 0 0.0 0.0 0.00 0.00 0.00 96 1018.1
20260502055023 48 0 0.0 0.0 0.00 0.00 0.00 96 1018.4
20260502054002 48 0 0.0 0.0 0.00 0.00 0.00 96 1018.5
20260502053002 48 0 0.0 0.0 0.00 0.00 0.00 96 1018.3
20260502052002 48 0 0.0 0.0 0.00 0.00 0.00 96 1018.4
20260502051002 48 0 0.0 0.0 0.00 0.00 0.00 96 1018.4
20260502050002 48 0 0.0 0.0 0.00 0.00 0.00 96 1018.1
20260502045002 48 0 0.0 0.0 0.00 0.00 0.00 96 1018.1
20260502044002 48 0 0.0 1.0 0.00 0.00 0.00 96 1018.0
20260502043002 47 0 0.0 1.0 0.00 0.00 0.00 96 1017.9
20260502042002 47 0 0.0 0.0 0.00 0.00 0.00 96 1017.9
20260502041023 47 0 0.0 0.0 0.00 0.00 0.00 96 1018.3
20260502040002 47 0 0.0 1.0 0.00 0.00 0.00 95 1018.3
20260502035002 47 0 0.0 1.0 0.00 0.00 0.00 95 1018.4
20260502034002 47 0 0.0 1.0 0.00 0.00 0.00 95 1018.4
20260502033003 47 295 0.0 1.0 0.00 0.00 0.00 94 1018.4
20260502032002 48 0 0.0 0.0 0.00 0.00 0.00 94 1018.6
20260502031003 48 0 0.0 0.0 0.00 0.00 0.00 94 1018.5
20260502030002 48 0 0.0 0.0 0.00 0.00 0.00 94 1018.6
20260502025002 48 0 0.0 0.0 0.00 0.00 0.00 94 1018.6
20260502024003 48 0 0.0 0.0 0.00 0.00 0.00 93 1018.6
20260502023003 49 0 0.0 0.0 0.00 0.00 0.00 93 1018.9
20260502022003 50 0 0.0 0.0 0.00 0.00 0.00 93 1018.9
20260502021003 51 0 0.0 0.0 0.00 0.00 0.00 94 1019.2
20260502020003 51 0 0.0 0.0 0.00 0.00 0.00 94 1019.2
20260502015003 51 0 0.0 0.0 0.00 0.00 0.00 94 1019.2
20260502014024 51 0 0.0 0.0 0.00 0.00 0.00 94 1019.1
20260502013003 51 0 0.0 0.0 0.00 0.00 0.00 94 1018.9
20260502012024 51 0 0.0 0.0 0.00 0.00 0.00 94 1019.3
20260502011003 51 0 0.0 0.0 0.00 0.00 0.00 94 1019.3
20260502010003 51 0 0.0 0.0 0.00 0.00 0.00 93 1019.4
20260502005024 51 0 0.0 0.0 0.00 0.00 0.00 93 1019.1
20260502004003 51 0 0.0 0.0 0.00 0.00 0.00 92 1019.6
20260502003003 51 0 0.0 0.0 0.00 0.00 0.00 91 1019.6
20260502002003 51 0 0.0 0.0 0.00 0.00 0.00 90 1019.8
20260502001003 52 0 0.0 0.0 0.00 0.00 0.00 90 1019.7
20260502000003 52 0 0.0 1.0 0.00 0.00 0.00 89 1019.6
20260501235003 53 0 0.0 0.0 0.00 0.00 0.00 89 1019.6
20260501234003 53 0 0.0 0.0 0.00 0.00 0.00 88 1019.8
20260501233024 54 0 0.0 1.0 0.00 0.00 0.00 87 1019.7
20260501232003 54 147 0.0 1.0 0.00 0.00 0.00 87 1019.8
20260501231003 54 135 0.0 1.0 0.00 0.00 0.00 87 1020.0
20260501230003 54 100 0.0 1.0 0.00 0.00 0.00 88 1020.3
20260501225003 53 129 0.0 1.0 0.00 0.00 0.00 89 1020.1
20260501224024 53 0 0.0 0.0 0.00 0.00 0.00 90 1020.3
20260501223003 52 0 0.0 0.0 0.00 0.00 0.00 91 1020.1
20260501222024 52 0 0.0 0.0 0.00 0.00 0.00 92 1020.6
20260501221003 52 0 0.0 0.0 0.00 0.00 0.00 91 1020.1
20260501220024 52 0 0.0 0.0 0.00 0.00 0.00 91 1020.3
20260501215003 52 0 0.0 0.0 0.00 0.00 0.00 91 1020.1
20260501214003 52 0 0.0 0.0 0.00 0.00 0.00 91 1020.3
20260501213003 53 0 0.0 0.0 0.00 0.00 0.00 91 1020.1
20260501212003 53 0 0.0 0.0 0.00 0.00 0.00 90 1020.1
20260501211003 53 135 0.0 2.0 0.00 0.00 0.00 90 1020.3
20260501210003 53 96 0.0 2.0 0.00 0.00 0.00 90 1020.1
20260501205003 53 0 0.0 0.0 0.00 0.00 0.00 90 1020.1
20260501204003 53 0 0.0 1.0 0.00 0.00 0.00 90 1020.3
20260501203003 53 128 0.0 2.0 0.00 0.00 0.00 89 1020.1
20260501202003 53 106 0.0 1.0 0.00 0.00 0.00 89 1020.1
20260501201003 53 98 0.0 1.0 0.00 0.00 0.00 89 1019.9
20260501200003 53 89 0.0 2.0 0.00 0.00 0.00 88 1020.0
20260501195003 54 88 0.0 2.0 0.00 0.00 0.00 88 1019.8
20260501194003 54 87 0.0 2.0 0.00 0.00 0.00 87 1019.9
20260501193003 54 119 0.0 2.0 0.00 0.00 0.00 86 1019.9
20260501192003 54 106 0.0 2.0 0.00 0.00 0.00 86 1019.5
20260501191003 54 125 0.0 3.0 0.00 0.00 0.00 85 1019.8
20260501190003 55 86 0.0 3.0 0.00 0.00 0.00 85 1019.6
20260501185024 55 74 0.0 3.0 0.00 0.00 0.00 84 1019.7
20260501184003 55 93 0.0 2.0 0.00 0.00 0.00 83 1019.5
20260501183003 55 112 1.0 4.0 0.00 0.00 0.00 83 1019.6
20260501182003 56 94 0.0 2.0 0.00 0.00 0.00 82 1019.6
20260501181003 55 104 0.0 3.0 0.00 0.00 0.00 82 1019.5
20260501180024 55 99 0.0 3.0 0.00 0.00 0.00 83 1019.5
20260501175003 56 89 1.0 3.0 0.00 0.00 0.00 82 1019.5
20260501174003 56 88 1.0 3.0 0.00 0.00 0.00 81 1019.8
20260501173003 57 81 1.0 4.0 0.00 0.00 0.00 80 1019.7